N3DOU-1 Weather Reports


time (UTC)temp
C
wind
direction
speed
KPH
gust
KPH
rain 1hr
cm
rain 24hr
cm
rain mn
cm
humidity
%
barometer
mb
20260504215622 23 231 3.2 4.8 0.00 0.00 0.00 36 1010.0
20260504214125 23 212 8.0 12.9 0.00 0.00 0.00 36 1010.0
20260504212625 24 221 1.6 4.8 0.00 0.00 0.00 38 1010.1
20260504211126 24 121 1.6 4.8 0.00 0.00 0.00 36 1010.0
20260504205625 24 183 9.7 12.9 0.00 0.00 0.00 36 1010.1
20260504204125 24 92 3.2 9.7 0.00 0.00 0.00 40 1010.1
20260504201123 23 160 3.2 4.8 0.00 0.00 0.00 37 1010.6
20260504192625 23 239 4.8 11.3 0.00 0.00 0.00 36 1011.4
20260504191125 23 232 1.6 4.8 0.00 0.00 0.00 39 1011.6
20260504184125 23 205 3.2 12.9 0.00 0.00 0.00 36 1011.8
20260504182624 23 267 3.2 11.3 0.00 0.00 0.00 35 1011.9
20260504174126 22 316 4.8 4.8 0.00 0.00 0.00 35 1012.7
20260504172625 22 185 3.2 8.0 0.00 0.00 0.00 34 1012.7
20260504171125 21 288 4.8 9.7 0.00 0.00 0.00 35 1013.0
20260504151125 19 209 3.2 4.8 0.00 0.00 0.00 45 1014.1
20260504081123 9 224 0.0 0.0 0.00 0.00 0.00 76 1015.4
20260504045624 8 242 0.0 0.0 0.00 0.00 0.00 74 1015.6
20260504044124 7 242 0.0 0.0 0.00 0.00 0.00 73 1015.7
20260504042624 7 250 0.0 0.0 0.00 0.00 0.00 73 1015.4
20260504041123 7 250 0.0 0.0 0.00 0.00 0.00 71 1015.5
20260504035624 7 250 0.0 0.0 0.00 0.00 0.00 72 1015.4
20260504034124 7 250 0.0 0.0 0.00 0.00 0.00 70 1015.1
20260504032623 7 250 0.0 0.0 0.00 0.00 0.00 72 1015.0
20260504031123 7 250 0.0 0.0 0.00 0.00 0.00 68 1014.9
20260504025624 7 250 0.0 0.0 0.00 0.00 0.00 67 1014.9
20260504024124 8 250 0.0 0.0 0.00 0.00 0.00 65 1014.8
20260504022624 8 250 0.0 0.0 0.00 0.00 0.00 65 1014.8
20260504021124 8 250 0.0 0.0 0.00 0.00 0.00 63 1014.9
20260504015623 9 250 0.0 0.0 0.00 0.00 0.00 60 1014.8
20260504014124 10 250 0.0 0.0 0.00 0.00 0.00 57 1014.9
20260504012624 10 250 0.0 0.0 0.00 0.00 0.00 55 1014.7
20260504011124 10 250 0.0 0.0 0.00 0.00 0.00 53 1014.5
20260504005623 11 250 0.0 0.0 0.00 0.00 0.00 51 1014.4
20260504004123 11 250 0.0 0.0 0.00 0.00 0.00 49 1014.3
20260504002624 12 250 0.0 0.0 0.00 0.00 0.00 48 1014.1
20260504001124 13 250 0.0 0.0 0.00 0.00 0.00 46 1014.1
20260503235623 14 250 0.0 0.0 0.00 0.00 0.00 42 1013.8
20260503234124 15 251 0.0 3.2 0.00 0.00 0.00 44 1013.7
20260503232625 15 292 0.0 0.0 0.00 0.00 0.00 39 1013.6
20260503231122 15 292 0.0 0.0 0.00 0.00 0.00 40 1013.7
20260503225624 16 277 0.0 1.6 0.00 0.00 0.00 36 1013.7
20260503224123 16 230 3.2 3.2 0.00 0.00 0.00 33 1013.6
20260503222622 16 286 1.6 3.2 0.00 0.00 0.00 35 1013.6
20260503221125 16 278 3.2 4.8 0.00 0.00 0.00 33 1013.7